• In Czech Republic
  • List of Countries
  • For 7 days
  • Water Temperature
  • Satellite Maps
  • Weather Map
  • Weather Widgets
  • user-avatar
    Login

    Hourly Weather Zatoky

    Today, 22 June, Friday

    Time Temperature Precipitation Wind Pressure Humidity
    00:00 +20°C° 0.1 mm 2 mps 727 mmHg 86%
    01:00 +19°C° 0.1 mm 2 mps 727 mmHg 87%
    02:00 +19°C° 0 mm 2 mps 726 mmHg 88%
    03:00 +19°C° 0.8 mm 2 mps 726 mmHg 89%
    04:00 +19°C° 0.8 mm 2 mps 726 mmHg 90%
    05:00 +19°C° 0.8 mm 2 mps 726 mmHg 91%
    06:00 +20°C° 0.9 mm 3 mps 726 mmHg 88%
    07:00 +21°C° 0.9 mm 3 mps 726 mmHg 85%
    08:00 +23°C° 0.9 mm 4 mps 726 mmHg 82%
    09:00 +22°C° 0.9 mm 5 mps 727 mmHg 82%
    10:00 +22°C° 0.9 mm 5 mps 727 mmHg 82%
    11:00 +22°C° 0.9 mm 6 mps 727 mmHg 81%
    12:00 +21°C° 0.3 mm 6 mps 727 mmHg 82%
    13:00 +18°C° 0.3 mm 7 mps 727 mmHg 83%
    14:00 +17°C° 0.3 mm 7 mps 727 mmHg 83%
    15:00 +17°C° 0.1 mm 7 mps 727 mmHg 82%
    16:00 +17°C° 0.1 mm 6 mps 727 mmHg 81%
    17:00 +17°C° 0.1 mm 6 mps 727 mmHg 80%
    18:00 +16°C° 0.1 mm 5 mps 728 mmHg 81%
    19:00 +15°C° 0.1 mm 5 mps 728 mmHg 81%
    20:00 +14°C° 0.1 mm 5 mps 728 mmHg 82%
    21:00 +14°C° 0 mm 5 mps 728 mmHg 80%
    22:00 +14°C° 0 mm 5 mps 728 mmHg 78%
    23:00 +13°C° 0 mm 5 mps 728 mmHg 76%

    Tomorrow, 23 June, Saturday

    Time Temperature Precipitation Wind Pressure Humidity
    00:00 +13°C° 0.4 mm 5 mps 728 mmHg 79%
    01:00 +12°C° 0.4 mm 5 mps 728 mmHg 82%
    02:00 +12°C° 0.4 mm 5 mps 727 mmHg 85%
    03:00 +10°C° 0.7 mm 5 mps 728 mmHg 87%
    04:00 +10°C° 0.7 mm 6 mps 728 mmHg 89%
    05:00 +10°C° 0.7 mm 6 mps 728 mmHg 91%
    06:00 +10°C° 0.4 mm 6 mps 728 mmHg 91%
    07:00 +10°C° 0.4 mm 6 mps 728 mmHg 91%
    08:00 +10°C° 0.4 mm 6 mps 728 mmHg 91%
    09:00 +10°C° 0.3 mm 6 mps 728 mmHg 90%
    10:00 +10°C° 0.3 mm 6 mps 728 mmHg 89%
    11:00 +10°C° 0.3 mm 5 mps 728 mmHg 88%
    12:00 +12°C° 0.2 mm 5 mps 728 mmHg 84%
    13:00 +13°C° 0.2 mm 5 mps 728 mmHg 81%
    14:00 +13°C° 0.2 mm 4 mps 728 mmHg 78%
    15:00 +14°C° 0.2 mm 4 mps 728 mmHg 76%
    16:00 +14°C° 0.2 mm 4 mps 728 mmHg 75%
    17:00 +14°C° 0.2 mm 4 mps 728 mmHg 74%
    18:00 +13°C° 0.2 mm 3 mps 728 mmHg 78%
    19:00 +12°C° 0.2 mm 3 mps 728 mmHg 83%
    20:00 +12°C° 0.2 mm 2 mps 728 mmHg 87%
    21:00 +11°C° 0 mm 3 mps 728 mmHg 89%
    22:00 +10°C° 0 mm 3 mps 728 mmHg 91%
    23:00 +9°C° 0 mm 3 mps 728 mmHg 93%

    Day after tomorrow, 24 June, Sunday

    Time Temperature Precipitation Wind Pressure Humidity
    00:00 +9°C° 0 mm 3 mps 728 mmHg 94%
    01:00 +9°C° 0 mm 3 mps 728 mmHg 94%
    02:00 +7°C° 0 mm 4 mps 728 mmHg 95%
    03:00 +8°C° 0 mm 3 mps 729 mmHg 95%
    04:00 +8°C° 0 mm 3 mps 729 mmHg 95%
    05:00 +8°C° 0 mm 3 mps 729 mmHg 96%
    06:00 +9°C° 0 mm 3 mps 729 mmHg 89%
    07:00 +11°C° 0 mm 4 mps 730 mmHg 83%
    08:00 +12°C° 0 mm 4 mps 730 mmHg 77%
    09:00 +14°C° 0 mm 4 mps 730 mmHg 73%
    10:00 +15°C° 0 mm 4 mps 730 mmHg 68%
    11:00 +17°C° 0 mm 4 mps 731 mmHg 63%
    12:00 +17°C° 0.1 mm 4 mps 730 mmHg 63%
    13:00 +18°C° 0.1 mm 4 mps 730 mmHg 62%
    14:00 +19°C° 0.1 mm 4 mps 730 mmHg 61%
    15:00 +19°C° 0.2 mm 4 mps 730 mmHg 62%
    16:00 +18°C° 0.2 mm 3 mps 730 mmHg 64%
    17:00 +18°C° 0.2 mm 3 mps 730 mmHg 65%
    18:00 +17°C° 0.1 mm 3 mps 730 mmHg 71%
    19:00 +16°C° 0.1 mm 2 mps 730 mmHg 76%
    20:00 +14°C° 0.1 mm 2 mps 731 mmHg 82%
    21:00 +13°C° 0 mm 2 mps 731 mmHg 85%
    22:00 +13°C° 0 mm 2 mps 731 mmHg 87%
    23:00 +12°C° 0 mm 2 mps 731 mmHg 89%

    25 June, Monday

    Time Temperature Precipitation Wind Pressure Humidity
    00:00 +11°C° 0 mm 1 mps 731 mmHg 90%
    01:00 +11°C° 0 mm 1 mps 731 mmHg 90%
    02:00 +10°C° 0 mm 1 mps 731 mmHg 90%
    03:00 +10°C° 0 mm 1 mps 732 mmHg 90%
    04:00 +10°C° 0 mm 1 mps 732 mmHg 90%
    05:00 +10°C° 0 mm 1 mps 732 mmHg 90%
    06:00 +12°C° 0 mm 1 mps 732 mmHg 84%
    07:00 +14°C° 0 mm 1 mps 732 mmHg 78%
    08:00 +16°C° 0 mm 1 mps 733 mmHg 73%
    09:00 +17°C° 0 mm 0 mps 733 mmHg 67%
    10:00 +18°C° 0 mm 0 mps 733 mmHg 61%
    11:00 +19°C° 0 mm 0 mps 733 mmHg 56%
    12:00 +20°C° 0 mm 0 mps 733 mmHg 54%
    13:00 +20°C° 0 mm 0 mps 733 mmHg 52%
    14:00 +21°C° 0 mm 0 mps 733 mmHg 50%
    15:00 +23°C° 0 mm 1 mps 733 mmHg 51%
    16:00 +23°C° 0 mm 1 mps 733 mmHg 51%
    17:00 +23°C° 0 mm 1 mps 733 mmHg 52%
    18:00 +21°C° 0.1 mm 1 mps 733 mmHg 58%
    19:00 +20°C° 0.1 mm 1 mps 733 mmHg 64%
    20:00 +18°C° 0.1 mm 1 mps 733 mmHg 70%
    21:00 +16°C° 0 mm 1 mps 733 mmHg 73%
    22:00 +16°C° 0 mm 1 mps 733 mmHg 76%
    23:00 +15°C° 0 mm 1 mps 733 mmHg 80%

    26 June, Tuesday

    Time Temperature Precipitation Wind Pressure Humidity
    00:00 +14°C° 0 mm 1 mps 733 mmHg 81%
    01:00 +14°C° 0 mm 1 mps 733 mmHg 82%
    02:00 +14°C° 0 mm 1 mps 733 mmHg 83%
    03:00 +14°C° 0 mm 1 mps 733 mmHg 84%
    04:00 +14°C° 0 mm 1 mps 733 mmHg 84%
    05:00 +13°C° 0 mm 1 mps 733 mmHg 85%
    06:00 +15°C° 0 mm 1 mps 734 mmHg 80%
    07:00 +18°C° 0 mm 1 mps 734 mmHg 76%
    08:00 +20°C° 0 mm 1 mps 734 mmHg 71%
    09:00 +20°C° 0.3 mm 2 mps 734 mmHg 67%
    10:00 +21°C° 0.3 mm 2 mps 734 mmHg 63%
    11:00 +23°C° 0.3 mm 2 mps 734 mmHg 58%
    12:00 +23°C° 0.2 mm 1 mps 734 mmHg 57%
    13:00 +24°C° 0.2 mm 1 mps 734 mmHg 55%
    14:00 +24°C° 0.2 mm 1 mps 733 mmHg 54%
    15:00 +24°C° 0.2 mm 1 mps 733 mmHg 56%
    16:00 +24°C° 0.2 mm 1 mps 733 mmHg 59%
    17:00 +23°C° 0.2 mm 2 mps 733 mmHg 62%
    18:00 +21°C° 0.2 mm 2 mps 733 mmHg 68%
    19:00 +19°C° 0.2 mm 2 mps 732 mmHg 74%
    20:00 +18°C° 0.2 mm 2 mps 732 mmHg 81%
    21:00 +18°C° 0 mm 1 mps 732 mmHg 82%
    22:00 +16°C° 0 mm 1 mps 732 mmHg 84%
    23:00 +15°C° 0 mm 1 mps 732 mmHg 85%

    27 June, Wednesday

    Time Temperature Precipitation Wind Pressure Humidity
    00:00 +15°C° 0 mm 1 mps 732 mmHg 86%
    01:00 +15°C° 0 mm 1 mps 732 mmHg 86%
    02:00 +15°C° 0 mm 1 mps 732 mmHg 87%
    03:00 +14°C° 0 mm 2 mps 732 mmHg 87%
    04:00 +14°C° 0 mm 2 mps 731 mmHg 88%
    05:00 +14°C° 0 mm 2 mps 731 mmHg 88%
    06:00 +16°C° 0 mm 2 mps 731 mmHg 84%
    07:00 +17°C° 0 mm 2 mps 732 mmHg 79%
    08:00 +19°C° 0 mm 2 mps 732 mmHg 75%
    09:00 +20°C° 0.5 mm 2 mps 731 mmHg 71%
    10:00 +21°C° 0.5 mm 3 mps 731 mmHg 68%
    11:00 +22°C° 0.5 mm 3 mps 731 mmHg 64%
    12:00 +22°C° 0.3 mm 3 mps 731 mmHg 62%
    13:00 +24°C° 0.3 mm 2 mps 730 mmHg 59%
    14:00 +24°C° 0.3 mm 2 mps 730 mmHg 57%
    15:00 +24°C° 0.2 mm 2 mps 730 mmHg 59%
    16:00 +24°C° 0.2 mm 3 mps 730 mmHg 62%
    17:00 +22°C° 0.2 mm 3 mps 730 mmHg 64%
    18:00 +21°C° 0.3 mm 3 mps 729 mmHg 71%
    19:00 +19°C° 0.3 mm 3 mps 729 mmHg 77%
    20:00 +17°C° 0.3 mm 2 mps 729 mmHg 84%
    21:00 +17°C° 0 mm 2 mps 729 mmHg 86%
    22:00 +16°C° 0 mm 2 mps 729 mmHg 88%
    23:00 +15°C° 0 mm 2 mps 729 mmHg 89%
    Show more